Time,TemperatureF,DewpointF,PressureIn,WindDirection,WindDirectionDegrees,WindSpeedMPH,WindSpeedGustMPH,Humidity,HourlyPrecipIn,Conditions,Clouds,dailyrainin,SolarRadiationWatts/m^2,SoftwareType,DateUTC
2013-03-28 14:52:00,44.0,21.0,-100.00,WSW,237,6.0,16.0,40,-99.99,,,0.00,689.000000,,2013-03-28 18:52:00,
2013-03-28 15:02:00,44.0,21.0,-100.00,WSW,237,6.0,16.0,40,-99.99,,,0.00,689.000000,,2013-03-28 19:02:00,
2013-03-28 15:12:00,44.0,21.0,-100.00,WSW,237,6.0,16.0,40,-99.99,,,0.00,689.000000,,2013-03-28 19:12:00,
2013-03-28 15:43:00,45.0,20.0,-100.00,WSW,242,6.0,15.0,37,0.00,,,0.00,555.000000,,2013-03-28 19:43:00,
2013-03-28 15:52:00,45.0,20.0,-100.00,WSW,242,6.0,15.0,37,0.00,,,0.00,555.000000,,2013-03-28 19:52:00,
2013-03-28 16:03:00,45.0,20.0,-100.00,WSW,242,6.0,15.0,37,0.00,,,0.00,555.000000,,2013-03-28 20:03:00,
2013-03-28 16:12:00,45.0,20.0,-100.00,WSW,242,6.0,15.0,37,0.00,,,0.00,555.000000,,2013-03-28 20:12:00,
2013-03-28 16:42:00,47.0,21.0,-100.00,SW,229,4.0,14.0,35,0.00,,,0.00,542.000000,,2013-03-28 20:42:00,
2013-03-28 16:53:00,47.0,21.0,-100.00,SW,229,4.0,14.0,35,0.00,,,0.00,542.000000,,2013-03-28 20:53:00,
2013-03-28 17:03:00,47.0,21.0,-100.00,SW,229,4.0,14.0,35,0.00,,,0.00,542.000000,,2013-03-28 21:03:00,
2013-03-28 17:12:00,47.0,21.0,-100.00,SW,229,4.0,14.0,35,0.00,,,0.00,542.000000,,2013-03-28 21:12:00,
2013-03-28 17:43:00,48.0,21.0,-100.00,SW,234,5.0,13.0,34,0.00,,,0.00,428.000000,,2013-03-28 21:43:00,
2013-03-28 17:53:00,48.0,21.0,-100.00,SW,234,5.0,13.0,34,0.00,,,0.00,428.000000,,2013-03-28 21:53:00,
2013-03-28 18:03:00,48.0,21.0,-100.00,SW,234,5.0,13.0,34,0.00,,,0.00,428.000000,,2013-03-28 22:03:00,
2013-03-28 18:13:00,48.0,21.0,-100.00,SW,234,5.0,13.0,34,0.00,,,0.00,428.000000,,2013-03-28 22:13:00,
2013-03-28 18:42:00,46.0,19.0,-100.00,SW,227,4.0,13.0,33,0.00,,,0.00,236.000000,,2013-03-28 22:42:00,
2013-03-28 18:53:00,46.0,19.0,-100.00,SW,227,4.0,13.0,33,0.00,,,0.00,236.000000,,2013-03-28 22:53:00,
2013-03-28 19:03:00,46.0,19.0,-100.00,SW,227,4.0,13.0,33,0.00,,,0.00,236.000000,,2013-03-28 23:03:00,
2013-03-28 19:12:00,46.0,19.0,-100.00,SW,227,4.0,13.0,33,0.00,,,0.00,236.000000,,2013-03-28 23:12:00,
2013-03-28 19:42:00,43.0,18.0,-100.00,South,185,2.0,10.0,36,0.00,,,0.00,111.000000,,2013-03-28 23:42:00,
2013-03-28 19:53:00,43.0,18.0,-100.00,South,185,2.0,10.0,36,0.00,,,0.00,111.000000,,2013-03-28 23:53:00,
2013-03-28 20:03:00,43.0,18.0,-100.00,South,185,2.0,10.0,36,0.00,,,0.00,111.000000,,2013-03-29 00:03:00,
2013-03-28 20:12:00,43.0,18.0,-100.00,South,185,2.0,10.0,36,0.00,,,0.00,111.000000,,2013-03-29 00:12:00,
2013-03-28 20:42:00,37.0,25.0,-100.00,South,185,2.0,6.0,61,0.00,,,-99.99,5.000000,,2013-03-29 00:42:00,
2013-03-28 20:52:00,37.0,25.0,-100.00,South,185,2.0,6.0,61,0.00,,,-99.99,5.000000,,2013-03-29 00:52:00,
2013-03-28 21:02:00,37.0,25.0,-100.00,South,185,2.0,6.0,61,0.00,,,-99.99,5.000000,,2013-03-29 01:02:00,
2013-03-28 21:12:00,37.0,25.0,-100.00,South,185,2.0,6.0,61,0.00,,,-99.99,5.000000,,2013-03-29 01:12:00,
2013-03-28 21:42:00,33.0,26.0,-100.00,WSW,246,2.0,4.0,75,0.00,,,-99.99,0.000000,,2013-03-29 01:42:00,
2013-03-28 21:53:00,33.0,26.0,-100.00,WSW,246,2.0,4.0,75,0.00,,,-99.99,0.000000,,2013-03-29 01:53:00,
2013-03-28 22:03:00,33.0,26.0,-100.00,WSW,246,2.0,4.0,75,0.00,,,-99.99,0.000000,,2013-03-29 02:03:00,
2013-03-28 22:12:00,33.0,26.0,-100.00,WSW,246,2.0,4.0,75,0.00,,,-99.99,0.000000,,2013-03-29 02:12:00,
2013-03-28 22:42:00,31.0,26.0,-100.00,WSW,252,1.0,2.0,80,0.00,,,-99.99,0.000000,,2013-03-29 02:42:00,
2013-03-28 22:53:00,31.0,26.0,-100.00,WSW,252,1.0,2.0,80,0.00,,,-99.99,0.000000,,2013-03-29 02:53:00,
2013-03-28 23:02:00,31.0,26.0,-100.00,WSW,252,1.0,2.0,80,0.00,,,-99.99,0.000000,,2013-03-29 03:02:00,
2013-03-28 23:12:00,31.0,26.0,-100.00,WSW,252,1.0,2.0,80,0.00,,,-99.99,0.000000,,2013-03-29 03:12:00,
2013-03-28 23:43:00,29.0,25.0,-100.00,SSE,162,1.0,3.0,86,0.00,,,-99.99,0.000000,,2013-03-29 03:43:00,
2013-03-28 23:53:00,29.0,25.0,-100.00,SSE,162,1.0,3.0,86,0.00,,,-99.99,0.000000,,2013-03-29 03:53:00,